| time (UTC) | temp F | wind direction | speed MPH | gust MPH | rain 1hr in | rain 24hr in | rain mn in | humidity % | barometer mb |
| 20260506001825 | 34 | 278 | 3.0 | 10.0 | 0.00 | 0.01 | 0.01 | 71 | 1008.6 |
| 20260506000324 | 33 | 234 | 4.0 | 9.0 | 0.00 | 0.01 | 0.01 | 73 | 1008.4 |
| 20260505234853 | 33 | 269 | 4.0 | 13.0 | 0.00 | 0.01 | 0.01 | 73 | 1008.2 |
| 20260505233328 | 33 | 341 | 3.0 | 13.0 | 0.00 | 0.01 | 0.01 | 74 | 1008.2 |
| 20260505231830 | 34 | 168 | 6.0 | 15.0 | 0.00 | 0.01 | 0.01 | 73 | 1008.1 |
| 20260505230344 | 34 | 238 | 4.0 | 12.0 | 0.00 | 0.01 | 0.01 | 71 | 1008.2 |
| 20260505224836 | 34 | 235 | 4.0 | 11.0 | 0.00 | 0.01 | 0.01 | 71 | 1008.1 |
| 20260505223332 | 35 | 230 | 2.0 | 9.0 | 0.00 | 0.01 | 0.01 | 72 | 1007.9 |
| 20260505221829 | 34 | 238 | 6.0 | 12.0 | 0.00 | 0.01 | 0.01 | 73 | 1007.8 |
| 20260505220330 | 34 | 269 | 3.0 | 13.0 | 0.00 | 0.01 | 0.01 | 74 | 1007.7 |
| 20260505214818 | 34 | 272 | 2.0 | 12.0 | 0.00 | 0.01 | 0.01 | 74 | 1007.7 |
| 20260505213320 | 34 | 240 | 5.0 | 13.0 | 0.00 | 0.01 | 0.01 | 73 | 1007.7 |
| 20260505211816 | 35 | 247 | 6.0 | 13.0 | 0.00 | 0.01 | 0.01 | 70 | 1007.6 |
| 20260505210317 | 35 | 256 | 4.0 | 11.0 | 0.00 | 0.01 | 0.01 | 71 | 1007.5 |
| 20260505204827 | 35 | 299 | 4.0 | 16.0 | 0.00 | 0.01 | 0.01 | 72 | 1007.4 |
| 20260505203330 | 36 | 214 | 3.0 | 12.0 | 0.00 | 0.01 | 0.01 | 73 | 1007.3 |
| 20260505201828 | 35 | 234 | 6.0 | 21.0 | 0.00 | 0.01 | 0.01 | 72 | 1007.1 |
| 20260505200328 | 35 | 303 | 6.0 | 14.0 | 0.00 | 0.01 | 0.01 | 72 | 1007.1 |
| 20260505194818 | 35 | 273 | 8.0 | 17.0 | 0.00 | 0.01 | 0.01 | 71 | 1007.1 |
| 20260505193313 | 35 | 259 | 4.0 | 18.0 | 0.00 | 0.01 | 0.01 | 71 | 1006.6 |
| 20260505191814 | 35 | 244 | 6.0 | 13.0 | 0.00 | 0.01 | 0.01 | 72 | 1006.6 |
| 20260505190351 | 35 | 273 | 5.0 | 18.0 | 0.00 | 0.01 | 0.01 | 72 | 1006.5 |
| 20260505184825 | 36 | 252 | 5.0 | 16.0 | 0.01 | 0.01 | 0.01 | 74 | 1006.5 |
| 20260505183320 | 34 | 243 | 4.0 | 10.0 | 0.01 | 0.01 | 0.01 | 79 | 1006.3 |
| 20260505181819 | 34 | 280 | 6.0 | 14.0 | 0.01 | 0.01 | 0.01 | 78 | 1006.2 |
| 20260505180332 | 34 | 316 | 7.0 | 20.0 | 0.01 | 0.01 | 0.01 | 76 | 1006.0 |
| 20260505174822 | 33 | 260 | 3.0 | 13.0 | 0.00 | 0.00 | 0.00 | 78 | 1006.0 |
| 20260505173323 | 33 | 231 | 2.0 | 9.0 | 0.00 | 0.00 | 0.00 | 80 | 1005.9 |
| 20260505171821 | 33 | 37 | 3.0 | 14.0 | 0.00 | 0.00 | 0.00 | 81 | 1005.7 |
| 20260505170321 | 33 | 307 | 6.0 | 12.0 | 0.00 | 0.00 | 0.00 | 81 | 1005.6 |
| 20260505164832 | 34 | 231 | 3.0 | 12.0 | 0.00 | 0.00 | 0.00 | 81 | 1005.5 |
| 20260505163314 | 34 | 276 | 3.0 | 11.0 | 0.00 | 0.00 | 0.00 | 83 | 1005.4 |
| 20260505161813 | 33 | 271 | 2.0 | 14.0 | 0.00 | 0.00 | 0.00 | 83 | 1005.2 |
| 20260505160331 | 33 | 255 | 5.0 | 12.0 | 0.00 | 0.00 | 0.00 | 85 | 1004.9 |
| 20260505153320 | 33 | 264 | 4.0 | 14.0 | 0.00 | 0.01 | 0.00 | 85 | 1004.8 |
| 20260505151823 | 34 | 276 | 3.0 | 9.0 | 0.00 | 0.01 | 0.00 | 83 | 1004.6 |
| 20260505150318 | 32 | 242 | 3.0 | 8.0 | 0.00 | 0.01 | 0.00 | 87 | 1004.4 |
| 20260505140329 | 35 | 119 | 2.0 | 6.0 | 0.00 | 0.09 | 0.00 | 79 | 1003.4 |
| 20260505124814 | 36 | 268 | 3.0 | 7.0 | 0.00 | 0.09 | 0.00 | 83 | 1002.7 |
| 20260505123315 | 35 | 268 | 4.0 | 8.0 | 0.00 | 0.09 | 0.00 | 80 | 1002.6 |
| 20260505121831 | 34 | 228 | 1.0 | 6.0 | 0.00 | 0.09 | 0.00 | 83 | 1002.4 |
| 20260505120332 | 35 | 284 | 2.0 | 6.0 | 0.00 | 0.09 | 0.00 | 81 | 1002.3 |
| 20260505114828 | 35 | 276 | 2.0 | 5.0 | 0.00 | 0.09 | 0.00 | 84 | 1001.9 |
| 20260505113325 | 33 | 259 | 2.0 | 6.0 | 0.00 | 0.09 | 0.00 | 85 | 1001.9 |
| 20260505111825 | 33 | 304 | 2.0 | 6.0 | 0.00 | 0.09 | 0.00 | 86 | 1001.8 |
| 20260505110325 | 33 | 349 | 2.0 | 6.0 | 0.00 | 0.09 | 0.00 | 87 | 1001.6 |
| 20260505101835 | 33 | 270 | 1.0 | 7.0 | 0.00 | 0.09 | 0.00 | 92 | 1001.1 |
| 20260505100329 | 32 | 259 | 1.0 | 4.0 | 0.00 | 0.09 | 0.00 | 92 | 1000.9 |
| 20260505094817 | 33 | 265 | 1.0 | 3.0 | 0.00 | 0.09 | 0.00 | 92 | 1000.8 |
| 20260505093338 | 32 | 261 | 1.0 | 2.0 | 0.00 | 0.09 | 0.00 | 90 | 1000.9 |
| 20260505091831 | 32 | 285 | 0.0 | 4.0 | 0.00 | 0.09 | 0.00 | 89 | 1000.8 |
| 20260505090330 | 32 | 246 | 1.0 | 2.0 | 0.00 | 0.09 | 0.00 | 90 | 1000.7 |
| 20260505084821 | 32 | 311 | 0.0 | 3.0 | 0.00 | 0.09 | 0.00 | 89 | 1000.7 |
| 20260505083322 | 33 | 233 | 1.0 | 7.0 | 0.00 | 0.09 | 0.00 | 86 | 1000.7 |
| 20260505081817 | 33 | 241 | 2.0 | 6.0 | 0.00 | 0.09 | 0.00 | 84 | 1000.4 |
| 20260505080314 | 33 | 283 | 2.0 | 11.0 | 0.00 | 0.09 | 0.00 | 86 | 1000.4 |
| 20260505074828 | 33 | 276 | 2.0 | 9.0 | 0.00 | 0.09 | 0.00 | 85 | 1000.4 |
| 20260505073343 | 33 | 265 | 0.0 | 5.0 | 0.00 | 0.09 | 0.00 | 86 | 1000.4 |
| 20260505071823 | 34 | 259 | 1.0 | 6.0 | 0.00 | 0.09 | 0.00 | 84 | 1000.3 |
| 20260505070319 | 34 | 276 | 2.0 | 7.0 | 0.00 | 0.09 | 0.00 | 80 | 1000.2 |
| 20260505064827 | 34 | 212 | 2.0 | 9.0 | 0.00 | 0.09 | 0.00 | 84 | 1000.0 |
| 20260505063327 | 34 | 251 | 3.0 | 12.0 | 0.00 | 0.09 | 0.00 | 85 | 999.8 |
| 20260505061822 | 34 | 281 | 3.0 | 10.0 | 0.00 | 0.09 | 0.00 | 88 | 999.7 |
| 20260505060344 | 35 | 295 | 2.0 | 7.0 | 0.00 | 0.09 | 0.00 | 87 | 999.7 |
| 20260505054833 | 35 | 283 | 2.0 | 9.0 | 0.00 | 0.09 | 0.00 | 87 | 999.5 |
| 20260505053332 | 36 | 252 | 2.0 | 11.0 | 0.00 | 0.09 | 0.00 | 87 | 999.3 |
| 20260505051826 | 36 | 204 | 3.0 | 13.0 | 0.00 | 0.09 | 0.00 | 86 | 999.0 |
| 20260505050324 | 37 | 280 | 4.0 | 10.0 | 0.00 | 0.09 | 0.00 | 85 | 998.9 |
| 20260505040313 | 37 | 248 | 5.0 | 12.0 | 0.00 | 0.09 | 0.00 | 83 | 998.3 |
| 20260505034826 | 37 | 233 | 3.0 | 10.0 | 0.00 | 0.09 | 0.09 | 83 | 998.3 |
| 20260505033341 | 37 | 280 | 4.0 | 13.0 | 0.00 | 0.09 | 0.09 | 84 | 998.2 |
| 20260505031819 | 38 | 261 | 4.0 | 12.0 | 0.00 | 0.09 | 0.09 | 84 | 998.3 |
| 20260505030315 | 38 | 295 | 5.0 | 14.0 | 0.00 | 0.09 | 0.09 | 84 | 998.3 |
| 20260505024828 | 38 | 13 | 3.0 | 14.0 | 0.00 | 0.09 | 0.09 | 84 | 998.1 |
| 20260505023328 | 38 | 215 | 4.0 | 10.0 | 0.00 | 0.09 | 0.09 | 83 | 998.2 |
| 20260505021844 | 39 | 278 | 6.0 | 18.0 | 0.00 | 0.09 | 0.09 | 78 | 997.7 |
| 20260505020323 | 40 | 270 | 6.0 | 16.0 | 0.00 | 0.09 | 0.09 | 79 | 997.6 |
| 20260505014831 | 40 | 255 | 5.0 | 16.0 | 0.00 | 0.09 | 0.09 | 76 | 997.3 |
| 20260505013315 | 41 | 245 | 6.0 | 18.0 | 0.00 | 0.09 | 0.09 | 74 | 997.2 |
| 20260505011833 | 41 | 200 | 5.0 | 15.0 | 0.00 | 0.09 | 0.09 | 76 | 997.0 |
| 20260505010314 | 41 | 240 | 7.0 | 19.0 | 0.00 | 0.09 | 0.09 | 75 | 996.9 |
| 20260505004825 | 42 | 302 | 7.0 | 16.0 | 0.00 | 0.09 | 0.09 | 74 | 996.8 |
| 20260505003322 | 42 | 318 | 4.0 | 16.0 | 0.00 | 0.09 | 0.09 | 74 | 996.6 |